Regional Weather Roundup
Issued by NWS Wilmington, NC

Home | Current Version | Previous Version | Text Only | Print | Product List | Glossary On
Versions: 1 2 3 4 5 6 7 8 9 10 11 12 13 14 15 16 17 18 19 20 21 22 23 24 25 26 27 28 29 30 31 32 33 34 35 36 37 38 39 40 41 42 43 44 45 46 47 48 49 50
000
ASUS42 KILM 020213
RWRILM
RWRILM
REGIONAL HOURLY WEATHER ROUNDUP
NATIONAL WEATHER SERVICE WILMINGTON NC
1000 PM EDT WED JUL 01 2015

NOTE: "FAIR" INDICATES FEW OR NO CLOUDS BELOW 12,000 FEET WITH NO
SIGNIFICANT WEATHER AND/OR OBSTRUCTIONS TO VISIBILITY.

...............WFO WILMINGTON COUNTY WARNING AREA...............

......COASTAL NC AND SC COUNTIES......

CITY           SKY/WX    TMP DP  RH WIND       PRES   REMARKS
WILMINGTON     PTCLDY    79  74  84 SW7       29.98R
N MYRTLE BEACH PTCLDY    80  71  74 SW6       29.98S
MYRTLE BEACH   CLEAR     82  70  65 S6        30.01R

......INLAND NC AND SC COUNTIES.......

CITY           SKY/WX    TMP DP  RH WIND       PRES   REMARKS
LUMBERTON      MOCLDY    78  72  81 S5        29.97R
ELIZABETHTOWN  PTCLDY    78  73  85 CALM      29.97S
WHITEVILLE     PTCLDY    76  71  83 CALM      29.98S
FLORENCE       CLEAR     79  72  79 SW6       29.98R
DARLINGTON     PTCLDY    77  70  78 SW6       29.99R

....................REST OF NORTH CAROLINA......................

.........EASTERN NC.........

CITY           SKY/WX    TMP DP  RH WIND       PRES   REMARKS
CAPE HATTERAS  CLEAR     78  74  87 SW16G23   29.96R
JACKSONVILLE   PTCLDY    73  68  83 CALM      29.97R
MOREHEAD CITY  PTCLDY    79  76  90 SW15      29.97R
KENANSVILLE    PTCLDY    73  71  94 CALM      29.98R
NEW BERN       MOCLDY    77  72  84 SW3       29.98R
ELIZABETH CITY CLEAR     74  70  87 S5        29.93R

.........CENTRAL NC.........

CITY           SKY/WX    TMP DP  RH WIND       PRES   REMARKS
RALEIGH DURHAM CLOUDY    80  71  74 SW12      29.95R
ROCKY MOUNT    PTCLDY    78  71  79 S9        29.95R
ROANOKE RAPIDS NOT AVBL
FAYETTEVILLE   CLOUDY    79  72  79 S8        29.95S
HOFFMAN        PTCLDY    78  72  82 S7        30.00S

.........WESTERN NC.........

CITY           SKY/WX    TMP DP  RH WIND       PRES   REMARKS
CHARLOTTE      LGT RAIN  78  68  71 W10       29.98R
GREENSBORO     CLOUDY    72  67  84 S7        29.95F
HICKORY        NOT AVBL
BOONE          NOT AVBL
ASHEVILLE      NOT AVBL

.....................REST OF SOUTH CAROLINA.....................

.........EASTERN SC.........

CITY           SKY/WX    TMP DP  RH WIND       PRES   REMARKS
CHARLESTON     CLOUDY    80  72  76 SW7       30.01R
BEAUFORT MCAS  MOCLDY    82  73  74 SW7       30.02R THUNDER
HILTON HEAD    PTCLDY    82  72  69 CALM      30.04R

.........CENTRAL SC.........

CITY           SKY/WX    TMP DP  RH WIND       PRES   REMARKS
COLUMBIA       MOCLDY    80  68  66 SW7       30.00R
ORANGEBURG     CLEAR     77  71  82 SW6       30.01R
SUMTER SHAW    PTCLDY    78  71  79 SW6       29.98R

.........WESTERN SC.........

CITY           SKY/WX    TMP DP  RH WIND       PRES   REMARKS
GREENVILLE     NOT AVBL
ROCK HILL      CLOUDY    79  69  71 SW7       29.99R
ANDERSON       LGT RAIN  70  67  90 CALM      30.03F
CLEMSON        NOT AVBL
GREENWOOD      RAIN      70  67  90 W7        30.04F FOG


...................COASTAL AND OFFSHORE REPORTS..................

................LOCAL PIERS AND NC RESERVE................


STATION/POSITION TIME  SKY/WX   TEMP    WIND        PRES    VSBY
                                AIR SEA DIR/SP/G
                 (UTC)          (F)     (DEG/KT/KT) (MB)    (MI)
JOHNY MRCER PIER 0100            80 81  230/  8/ 11 1014.4R
NC RESRV MASNBRO NOT AVBL
OCEAN CREST PIER NOT AVBL
SPRINGMAID  PIER 0100            83 83  200/  8/ 10 1015.4R


................COASTAL AND OFFSHORE BUOYS................


STATION/POSITION TIME  SKY/WX   TEMP    WIND        PRES    VSBY
                                AIR SEA DIR/SP/G
                 (UTC)          (F)     (DEG/KT/KT) (MB)    (MI)
DIMNDSHOAL 41025 0150            80 83  230/ 19/ 21 1014.2R
WVE H/P(F/S)=  5/ 8 WND WVE H/P(F/S)=  3/ 6 SWL H/P/D(F/S/D)=  3/170/ 8

CAPE LOOKOUT     0200            79     240/ 12/ 18 1014.7R
ONSLOW BAY 41036 NOT AVBL
5 WRITEBCH 41038 0108            81 80  240/ 14/ 17 1014.6S
MASONBORO  41110 0119               80                N/A
WVE H/P(F/S)=  4/ 7 WND WVE H/P(F/S)=  3/ 7

WILM HARBR 41108 0111               81                N/A
WVE H/P(F/S)=  4/ 6 WND WVE H/P(F/S)=  5/ 6

27WRITEBCH 41037 0100               80  250/ 17/ 19   N/A
FRYING PAN 41013 0150            81 80  230/ 16/ 19 1016.0R
WVE H/P(F/S)=  5/ 6 WND WVE H/P(F/S)=  3/ 6 SWL H/P/D(F/S/D)=  2/150/ 9

SUNST NRSH 41024 0108            83     250/ 12/ 16 1015.1R
CAPRS NRSH 41029 0108            82     230/ 16/ 17 1016.1R
EDISTO     41004 0150            82 82  220/ 14/ 16 1016.0R
WVE H/P(F/S)=  4/ 6 WND WVE H/P(F/S)=  3/ 6 SWL H/P/D(F/S/D)=  2/ 8



..........OFFSHORE BUOYS BEYOND 100 NM OFFSHORE...........
.....IN A TRIANGLE---HAT TO BERMUDA TO BAHAMAS TO HAT.....


STATION/POSITION TIME  SKY/WX   TEMP    WIND        PRES    VSBY
                                AIR SEA DIR/SP/G
                 (UTC)          (F)     (DEG/KT/KT) (MB)    (MI)
150E HAT   41001 NOT AVBL
W BERMUDA  41048 0150            81 80  190/ 12/ 14 1021.8R
WVE H/P(F/S)=  4/ 7 WND WVE H/P(F/S)=  2/ 5 SWL H/P/D(F/S/D)=  3/230/ 7

ATLANTIC S 41049 0150            82 83   80/ 12/ 14 1024.6R
WVE H/P(F/S)=  4/ 8 WND WVE H/P(F/S)=  2/ 4 SWL H/P/D(F/S/D)=  3/130/ 8

E BAHAMAS  41046 0150            82 83  100/ 14/ 17 1021.7R
WVE H/P(F/S)=  6/ 9 WND WVE H/P(F/S)=  3/ 6 SWL H/P/D(F/S/D)=  5/120/ 9

NE BAHAMAS 41047 0150            83 84  130/  8/ 12 1022.1R
WVE H/P(F/S)=  4/ 8 WND WVE H/P(F/S)=  2/ 4 SWL H/P/D(F/S/D)=  3/130/ 8

120E CANVRL41010 0120            83 84  200/ 12/ 14 1020.0R

END


USA.gov is the U.S. government's official web portal to all federal, state and local government web resources and services.